Regional Weather Roundup
Issued by NWS Cleveland, OH

Home | Current Version | Previous Version | Text Only | Print | Product List | Glossary Off
Versions: 1 2 3 4 5 6 7 8 9 10 11 12 13 14 15 16 17 18 19 20 21 22 23 24 25 26 27 28 29 30 31 32 33 34 35 36 37 38 39 40 41 42 43 44 45 46 47 48 49 50

000
ASUS41 KCLE 071902
RWRCLE
OHIO REGIONAL WEATHER ROUNDUP
NATIONAL WEATHER SERVICE CLEVELAND, OH
200 PM EST WED DEC 07 2016

NOTE: "FAIR" INDICATES FEW OR NO CLOUDS BELOW 12,000 FEET WITH NO
SIGNIFICANT WEATHER AND/OR OBSTRUCTIONS TO VISIBILITY.

OHZ001>008-015>018-024>027-034-035-043-044-072000-
   NORTHWEST OHIO

CITY           SKY/WX    TMP DP  RH WIND       PRES   REMARKS
DEFIANCE       PTSUNNY   35  23  61 SW9       30.07F WCI  28
FINDLAY        SUNNY     37  24  59 SW13      30.06F
TOLEDO EXPRESS MOSUNNY   35  21  56 SW20G28   30.05F WCI  24
TOLEDO EXEC    MOSUNNY   36  24  62 SW17      30.06F
LIMA           MOSUNNY   35  24  64 SW14      30.07F WCI  26
$$

OHZ009>014-019>023-028>033-038-089-072000-
   NORTHEAST OHIO

CITY           SKY/WX    TMP DP  RH WIND       PRES   REMARKS
CLE-HOPKINS    PTSUNNY   38  22  52 SW14      30.08S
CLE-LAKEFRONT  SUNNY     38  23  55 SW17      30.05S
CUY CO. ARPT   MOSUNNY   39  25  56 W16       30.05R
LORAIN-ELYRIA  SUNNY     35  24  64 W16       30.06F WCI  25
ASHTABULA      SUNNY     38  26  62 W12       30.03S
AKRON-CANTON   PTSUNNY   37  22  54 SW14      30.05R
WOOSTER        SUNNY     36  23  59 W13       30.06S
MANSFIELD      SUNNY     35  22  58 SW13      30.06R WCI  26
YOUNGSTOWN     PTSUNNY   37  24  59 SW14      30.02S
$$

OHZ042-051>053-060>062-070>072-077>081-072000-
  SOUTHWEST OHIO

CITY           SKY/WX    TMP DP  RH WIND       PRES   REMARKS
CINC-COVINGTON CLOUDY    39  22  50 W10       30.12S
CINC-LUNKEN    CLOUDY    41  24  51 W7        30.14F
HAMILTON       CLOUDY    39  23  52 W5        30.14F
DAYTON         CLOUDY    36  22  56 W9        30.11F
WRIGHT-PAT AFB NOT AVBL
DAYTON GENERAL CLOUDY    37  19  48 SW7       30.10F
WILMINGTON     CLOUDY    37  22  54 W10       30.10F
$$

OHZ036-037-039>041-045>050-054>059-063>069-073>076-082>088-072000-
  CENTRAL AND SOUTHEAST OHIO

CITY           SKY/WX    TMP DP  RH WIND       PRES   REMARKS
COLUMBUS       PTSUNNY   37  23  56 SW10      30.10F
OSU AIRPORT    CLOUDY    37  24  59 W12       30.09F
BOLTON FIELD   CLOUDY    36  25  64 SW8       30.11F
RICKENBACK AFB NOT AVBL
NEWARK         MOSUNNY   37  23  56 S12       30.09F
MARION         PTSUNNY   36  23  59 SW14      30.09S
LANCASTER      CLOUDY    37  25  61 SW10      30.11F
ZANESVILLE     CLOUDY    39  24  55 W9        30.10F
NEW PHILLY     NOT AVBL
$$




USA.gov is the U.S. government's official web portal to all federal, state and local government web resources and services.